Flag for Germany Weather past 2 weeks in Görlitz, Saxony, Germany

Now
59 °F

Overcast.


Feels Like: 60 °F
Forecast: 46 / 67 °F
Wind: 3 mph from East

Location: Goerlitz


UV Index: 3 (Moderate)

Visibility: 11 mi


Pressure: 29.91 "Hg

Humidity: 59%

Dew point: 45 °F

Location of GörlitzLocation

Historic Weather in Görlitz

°F

Görlitz temperature yesterday

Maximum temperature yesterday: 45 °F (at 3:00 AM)
Minimum temperature yesterday: 40 °F (at 11:00 PM)
Average temperature yesterday: 42 °F

Past Weeks' High & Low Weather Summary

 TemperatureHumidityPressure
High67 °F (Apr 7, 4:00 PM)99% (Apr 11, 6:00 AM)30.44 "Hg (Apr 11, 6:00 AM)
Low29 °F (Apr 17, 6:00 AM)34% (Apr 17, 3:00 PM)29.75 "Hg (Apr 14, 12:00 PM)
Average47 °F76%30.04 "Hg
* Reported Apr 4 10:00 PM — Apr 19 10:00 PM, Görlitz, Weather by CustomWeather, © 2014

Note: Actual official high and low records may vary slightly from our data, if they occured in-between our weather recording intervals... More about our weather records

Advertising

Historic Weather Conditions — Data for Previous 24 hours

 ConditionsComfort  
Time TempWeatherWind HumidityBarometerVisibility
10:00 PM
Apr 19
59 °FOvercast.3 mph62%29.91 "Hg11 mi
9:00 PM60 °FOvercast.5 mph59%29.91 "Hg11 mi
8:00 PM61 °FOvercast.6 mph57%29.90 "Hg12 mi
7:00 PM63 °FOvercast.6 mph54%29.90 "Hg12 mi
6:00 PM62 °FOvercast.1 mph72%29.90 "Hg9 mi
5:00 PM63 °FPartly sunny.2 mph73%29.91 "Hg6 mi
4:00 PM60 °FOvercast.3 mph78%29.94 "Hg8 mi
3:00 PM57 °FScattered clouds.2 mph79%29.97 "Hg5 mi
2:00 PM53 °FFog.3 mph85%30.00 "Hg3 mi
1:00 PM48 °FFog.3 mph91%30.03 "Hg2 mi
12:00 PM47 °FFog.2 mph90%30.03 "Hg3 mi
11:00 AM45 °FFog.1 mph92%30.04 "Hg3 mi
10:00 AM43 °FFog.3 mph96%30.04 "Hg3 mi
9:00 AM42 °FFog.3 mph98%30.03 "Hg4 mi
8:00 AM40 °FFog.2 mph98%30.04 "Hg0 mi
7:00 AM38 °FFog.1 mph99%30.05 "Hg0 mi
6:00 AM39 °FFog.2 mph98%30.04 "Hg0 mi
5:00 AM40 °FFog.2 mph98%30.03 "Hg0 mi
4:00 AM40 °FFog.1 mph98%30.02 "Hg2 mi
3:00 AM38 °FFog.1 mph98%30.03 "Hg1 mi
2:00 AM37 °FFog.2 mph99%30.03 "Hg0 mi
1:00 AM35 °FFog.2 mph97%30.01 "Hg0 mi
12:00 AM40 °FFog.2 mph95%29.99 "Hg8 mi
11:00 PM
Apr 18
40 °FFog.1 mph94%29.98 "Hg8 mi
Weather by CustomWeather, © 2014

See weather overview